Poughkeepsie, NY

3:19 AM EDT on July 23, 2017 (GMT -0400)
Dutchess County

Weather History for KPOU - April, 2014

Change the Weather History Date:

Tuesday, April 29, 2014

  Actual Average Record
Temperature  
Mean Temperature 46 °F 54 °F  
Max Temperature 50 °F 66 °F 88 °F (1974)
Min Temperature 42 °F 41 °F 26 °F (1949)
Degree Days  
Heating Degree Days 19 12  
Month to date heating degree days 456 482  
Since 1 July heating degree days 6186 5927  
Cooling Degree Days 0 0  
Month to date cooling degree days 6 0  
Year to date cooling degree days 6 0  
Moisture  
Dew Point 37 °F    
Average Humidity 67    
Maximum Humidity 82    
Minimum Humidity 57    
Precipitation  
Precipitation 0.15 in 0.13 in 0.92 in (1958)
Month to date precipitation 2.73 3.65  
Year to date precipitation 9.76 12.96  
Sea Level Pressure  
Sea Level Pressure 30.31 in    
Wind  
Wind Speed 7 mph (ESE)    
Max Wind Speed 15 mph    
Max Gust Speed 23 mph    
Visibility 10 miles    
Events Rain    
T = Trace of Precipitation, MM = Missing Value Source: NWS Daily Summary

Daily Weather History Graph

Daily Weather History Graph

Search for Another Location

Airport or City:

Trip Planner

Search our weather history database for the weather conditions in past years. The results will help you decide how hot, cold, wet, or windy it might be!

Date:

Astronomy

Apr. 29, 2014 Rise Set
Actual Time 5:54 AM EDT 7:51 PM EDT
Civil Twilight 5:25 AM EDT 8:21 PM EDT
Nautical Twilight 4:48 AM EDT 8:58 PM EDT
Astronomical Twilight 4:08 AM EDT 9:38 PM EDT
Moon 6:11 AM EDT (4/29) 8:29 PM EDT (4/29)
Length of Visible Light 14h 56m
Length of Day
13h 56m
New Moon, 0% of the Moon is Illuminated
Apr 29
New Moon
May 6
First Quarter
May 14
Full
May 21
Last Quarter
May 28
New

Hourly Weather History & Observations

Time (EDT) Temp. Windchill Dew Point Humidity Pressure Visibility Wind Dir Wind Speed Gust Speed Precip Events Conditions
12:53 AM 50.0 °F - 35.1 °F 57% 30.14 in 10.0 mi ESE 12.7 mph 23.0 mph N/A   Mostly Cloudy
1:53 AM 48.9 °F - 36.0 °F 61% 30.16 in 10.0 mi Variable 4.6 mph - N/A   Scattered Clouds
2:53 AM 48.0 °F - 36.0 °F 63% 30.19 in 10.0 mi Calm Calm - N/A   Clear
3:53 AM 48.9 °F - 37.0 °F 64% 30.22 in 10.0 mi Calm Calm - N/A   Overcast
4:14 AM 48.9 °F - 37.0 °F 64% 30.22 in 10.0 mi East 3.5 mph - N/A   Overcast
4:24 AM 48.9 °F - 37.0 °F 64% 30.22 in 10.0 mi Calm Calm - N/A   Overcast
4:38 AM 48.9 °F - 37.0 °F 64% 30.22 in 10.0 mi ESE 3.5 mph - N/A   Overcast
4:53 AM 48.9 °F - 37.9 °F 66% 30.20 in 10.0 mi ESE 6.9 mph - N/A   Overcast
5:53 AM 50.0 °F - 37.9 °F 63% 30.22 in 10.0 mi East 4.6 mph - N/A   Overcast
6:53 AM 48.9 °F - 37.9 °F 66% 30.26 in 10.0 mi East 13.8 mph - N/A   Overcast
7:53 AM 48.0 °F - 37.0 °F 66% 30.27 in 10.0 mi ESE 15.0 mph 20.7 mph N/A   Overcast
8:53 AM 46.9 °F - 36.0 °F 66% 30.32 in 10.0 mi East 12.7 mph 19.6 mph N/A   Overcast
9:53 AM 46.9 °F - 36.0 °F 66% 30.34 in 10.0 mi East 11.5 mph 19.6 mph N/A   Overcast
10:53 AM 48.0 °F - 36.0 °F 63% 30.35 in 10.0 mi East 10.4 mph - N/A   Overcast
11:53 AM 48.0 °F - 36.0 °F 63% 30.35 in 10.0 mi SE 11.5 mph - N/A   Overcast
12:53 PM 46.9 °F - 36.0 °F 66% 30.36 in 10.0 mi East 9.2 mph - N/A   Overcast
1:53 PM 48.9 °F - 36.0 °F 61% 30.36 in 10.0 mi ESE 11.5 mph - N/A   Overcast
2:42 PM 48.9 °F - 36.0 °F 61% 30.36 in 10.0 mi SE 8.1 mph - N/A   Overcast
2:53 PM 48.9 °F - 36.0 °F 61% 30.35 in 10.0 mi SE 8.1 mph - N/A   Overcast
3:53 PM 48.9 °F - 37.9 °F 66% 30.33 in 10.0 mi East 9.2 mph - 0.00 in Rain Light Rain
5:10 PM 48.9 °F - 39.0 °F 69% 30.36 in 10.0 mi East 4.6 mph - 0.01 in   Overcast
6:53 PM 46.9 °F - 39.0 °F 74% 30.37 in 10.0 mi SSE 4.6 mph - N/A   Overcast
7:53 PM 46.0 °F 40.2 °F 37.0 °F 71% 30.36 in 10.0 mi ESE 12.7 mph - 0.00 in   Overcast
8:41 PM 45.0 °F 40.6 °F 37.0 °F 74% 30.40 in 10.0 mi SE 8.1 mph - 0.00 in   Overcast
8:53 PM 45.0 °F 41.2 °F 37.0 °F 74% 30.41 in 10.0 mi SE 6.9 mph - 0.00 in Rain Light Rain
9:53 PM 44.1 °F 39.5 °F 37.0 °F 76% 30.42 in 5.0 mi ESE 8.1 mph - 0.01 in Rain Light Rain
10:53 PM 43.0 °F 39.5 °F 37.9 °F 82% 30.43 in 4.0 mi SE 5.8 mph - 0.06 in Rain Light Rain
11:53 PM 43.0 °F 39.5 °F 37.9 °F 82% 30.43 in 10.0 mi ESE 5.8 mph - 0.05 in   Overcast